Location: *
(51.5000°N, 0.1100°W)
Time: 00:08:30
(UTC+00:00)

MSX - Pass Details

Date: 05 August 2024
Orbit: 895 x 904 km, 99.0° (Epoch: 09 September)

Event Time Altitude Azimuth Distance (km) Brightness Sun altitude
Rises 01:48:34 0° 17° (NNE) 3,544 8.6 -18.1°
Reaches altitude 10° 01:51:01 10° 20° (NNE) 2,599 7.5 -17.9°
Maximum altitude 01:56:48 69° 103° (ESE) 971 4.0 -17.5°
Enters shadow 02:00:23 24° 182° (S) 1,783 4.9 -17.3°
